N6BSV-13 Weather Reports


time (UTC)temp
C
wind
direction
speed
KPH
gust
KPH
rain 1hr
cm
rain 24hr
cm
rain mn
cm
humidity
%
barometer
mb
20260508013026 17 124 3.2 6.4 0.00 0.00 0.00 88 1013.9
20260508012057 17 139 3.2 4.8 0.00 0.00 0.00 87 1013.8
20260508011027 18 137 1.6 6.4 0.00 0.00 0.00 87 1013.8
20260508010110 18 120 3.2 6.4 0.00 0.00 0.00 87 1013.9
20260508005057 18 127 3.2 6.4 0.00 0.00 0.00 87 1013.8
20260508004050 18 127 3.2 8.0 0.00 0.00 0.00 87 1013.8
20260508003048 18 101 3.2 6.4 0.00 0.00 0.00 85 1013.8
20260508002051 19 134 3.2 4.8 0.00 0.00 0.00 84 1013.8
20260508001038 18 101 3.2 4.8 0.00 0.00 0.00 85 1013.9
20260508000018 18 120 3.2 6.4 0.00 0.00 0.00 85 1013.9
20260507235033 18 112 3.2 6.4 0.00 0.00 0.00 84 1013.9
20260507234104 18 123 3.2 6.4 0.00 0.00 0.00 85 1014.0
20260507233045 18 130 3.2 6.4 0.00 0.00 0.00 83 1014.0
20260507232038 18 122 3.2 6.4 0.00 0.00 0.00 83 1014.1
20260507231034 18 124 3.2 4.8 0.00 0.00 0.00 84 1014.1
20260507230048 18 128 1.6 4.8 0.00 0.00 0.00 84 1014.1
20260507225103 18 121 3.2 6.4 0.00 0.00 0.00 84 1014.2
20260507224024 18 125 4.8 6.4 0.00 0.00 0.00 84 1014.3
20260507223039 18 124 3.2 8.0 0.00 0.00 0.00 84 1014.4
20260507222032 18 121 3.2 8.0 0.00 0.00 0.00 85 1014.5
20260507221048 18 121 3.2 9.7 0.00 0.00 0.00 84 1014.6
20260507220035 18 121 3.2 6.4 0.00 0.00 0.00 84 1014.8
20260507215056 18 124 3.2 9.7 0.00 0.00 0.00 83 1014.9
20260507214036 18 122 3.2 6.4 0.00 0.00 0.00 82 1015.0
20260507213041 18 124 3.2 4.8 0.00 0.00 0.00 83 1015.1
20260507212047 18 132 3.2 6.4 0.00 0.00 0.00 83 1015.2
20260507211024 19 124 3.2 6.4 0.00 0.00 0.00 81 1015.3
20260507210047 18 119 3.2 4.8 0.00 0.00 0.00 82 1015.4
20260507205052 18 123 1.6 4.8 0.00 0.00 0.00 82 1015.5
20260507204050 18 118 1.6 4.8 0.00 0.00 0.00 81 1015.5
20260507203035 18 111 3.2 6.4 0.00 0.00 0.00 81 1015.6
20260507202101 18 112 3.2 6.4 0.00 0.00 0.00 83 1015.7
20260507201046 18 129 1.6 4.8 0.00 0.00 0.00 83 1015.8
20260507200051 18 114 3.2 4.8 0.00 0.00 0.00 82 1015.9
20260507195057 18 113 3.2 4.8 0.00 0.00 0.00 83 1016.0
20260507194046 17 110 3.2 6.4 0.00 0.00 0.00 84 1016.2
20260507193105 18 111 3.2 6.4 0.00 0.00 0.00 83 1016.2
20260507192018 17 108 3.2 4.8 0.00 0.00 0.00 84 1016.3
20260507191108 17 113 3.2 4.8 0.00 0.00 0.00 84 1016.3
20260507190055 17 109 3.2 4.8 0.00 0.00 0.00 85 1016.4
20260507185044 17 113 3.2 6.4 0.00 0.00 0.00 86 1016.5
20260507184022 17 112 3.2 6.4 0.00 0.00 0.00 85 1016.6
20260507183017 17 114 3.2 4.8 0.00 0.00 0.00 85 1016.6
20260507182030 17 107 1.6 3.2 0.00 0.00 0.00 86 1016.6
20260507181044 17 113 1.6 4.8 0.00 0.00 0.00 86 1016.6
20260507180049 17 108 3.2 4.8 0.00 0.00 0.00 86 1016.6
20260507175104 17 98 1.6 3.2 0.00 0.00 0.00 85 1016.7
20260507174024 17 118 1.6 4.8 0.00 0.00 0.00 86 1016.7
20260507173039 17 109 3.2 4.8 0.00 0.00 0.00 86 1016.7
20260507172026 17 112 3.2 4.8 0.00 0.00 0.00 86 1016.7
20260507171040 17 112 3.2 4.8 0.00 0.00 0.00 85 1016.7
20260507170111 17 112 3.2 4.8 0.00 0.00 0.00 86 1016.7
20260507165024 17 113 1.6 4.8 0.00 0.00 0.00 86 1016.7
20260507164038 17 113 1.6 3.2 0.00 0.00 0.00 87 1016.8
20260507163025 16 110 3.2 4.8 0.00 0.00 0.00 87 1016.8
20260507162050 17 108 1.6 3.2 0.00 0.00 0.00 86 1016.8
20260507161115 17 118 1.6 3.2 0.00 0.00 0.00 87 1016.9
20260507160023 17 117 1.6 3.2 0.00 0.00 0.00 87 1016.9
20260507155028 16 110 1.6 3.2 0.00 0.00 0.00 89 1016.9
20260507154042 16 104 1.6 3.2 0.00 0.00 0.00 90 1016.8
20260507153029 16 104 1.6 1.6 0.00 0.00 0.00 89 1016.9
20260507152050 16 102 1.6 1.6 0.00 0.00 0.00 90 1017.0
20260507151220 16 106 0.0 1.6 0.00 0.00 0.00 91 1016.9
20260507150035 16 109 1.6 1.6 0.00 0.00 0.00 92 1016.9
20260507145022 15 104 1.6 1.6 0.00 0.00 0.00 93 1016.8
20260507144027 15 109 1.6 1.6 0.00 0.00 0.00 94 1016.7
20260507143041 15 93 0.0 1.6 0.00 0.00 0.00 94 1016.6
20260507142038 15 91 0.0 1.6 0.00 0.00 0.00 95 1016.6
20260507141015 15 82 0.0 1.6 0.00 0.00 0.00 95 1016.5
20260507140104 14 89 0.0 1.6 0.00 0.00 0.00 95 1016.4
20260507135044 14 106 0.0 1.6 0.00 0.00 0.00 95 1016.3
20260507134043 13 91 0.0 1.6 0.00 0.00 0.00 95 1016.2
20260507133026 13 95 0.0 1.6 0.00 0.00 0.00 95 1016.2
20260507132032 13 93 0.0 1.6 0.00 0.00 0.00 94 1016.1
20260507131107 13 88 0.0 1.6 0.00 0.00 0.00 94 1016.1
20260507130024 13 64 0.0 1.6 0.00 0.00 0.00 94 1016.0
20260507125022 13 85 0.0 1.6 0.00 0.00 0.00 94 1015.9
20260507124035 13 82 0.0 1.6 0.00 0.00 0.00 94 1015.9
20260507123058 13 92 0.0 1.6 0.00 0.00 0.00 94 1015.9
20260507122019 13 97 0.0 1.6 0.00 0.00 0.00 93 1015.9
20260507121058 14 0.0 1.6 0.00 0.00 0.00 93 1016.0
20260507120115 13 86 0.0 1.6 0.00 0.00 0.00 93 1016.0
20260507115051 14 90 0.0 1.6 0.00 0.00 0.00 93 1016.0
20260507114048 14 94 0.0 1.6 0.00 0.00 0.00 93 1016.0
20260507113026 14 79 0.0 1.6 0.00 0.00 0.00 93 1016.1
20260507112049 14 85 0.0 1.6 0.00 0.00 0.00 93 1016.1
20260507111018 14 79 1.6 1.6 0.00 0.00 0.00 92 1016.2
20260507110100 14 85 0.0 1.6 0.00 0.00 0.00 92 1016.3
20260507105057 14 85 0.0 1.6 0.00 0.00 0.00 92 1016.3
20260507104050 14 80 0.0 1.6 0.00 0.00 0.00 91 1016.3
20260507103030 14 106 0.0 1.6 0.00 0.00 0.00 91 1016.4
20260507102123 15 79 0.0 1.6 0.00 0.00 0.00 91 1016.4
20260507101022 15 106 0.0 1.6 0.00 0.00 0.00 91 1016.4
20260507100019 15 104 0.0 1.6 0.00 0.00 0.00 91 1016.4
20260507095107 15 63 0.0 1.6 0.00 0.00 0.00 91 1016.5
20260507094038 15 89 1.6 1.6 0.00 0.00 0.00 91 1016.6
20260507093041 15 88 0.0 1.6 0.00 0.00 0.00 91 1016.7
20260507092057 15 88 0.0 1.6 0.00 0.00 0.00 90 1016.8
20260507091034 15 98 0.0 1.6 0.00 0.00 0.00 90 1016.9
20260507090050 15 92 0.0 1.6 0.00 0.00 0.00 90 1017.0
20260507085123 15 89 0.0 1.6 0.00 0.00 0.00 89 1017.0
20260507084024 15 61 0.0 1.6 0.00 0.00 0.00 89 1017.1
20260507083029 15 81 0.0 1.6 0.00 0.00 0.00 89 1017.2
20260507082101 15 106 0.0 1.6 0.00 0.00 0.00 88 1017.2
20260507081022 15 68 0.0 1.6 0.00 0.00 0.00 88 1017.3
20260507075030 16 337 1.6 1.6 0.00 0.00 0.00 88 1017.3
20260507074036 16 323 0.0 1.6 0.00 0.00 0.00 88 1017.3
20260507073107 16 321 0.0 1.6 0.00 0.00 0.00 87 1017.4
20260507072107 16 0.0 1.6 0.00 0.00 0.00 87 1017.4
20260507071122 16 353 0.0 1.6 0.00 0.00 0.00 87 1017.4
20260507070109 16 314 0.0 1.6 0.00 0.00 0.00 86 1017.4
20260507065019 16 341 0.0 1.6 0.00 0.00 0.00 86 1017.5
20260507064138 16 312 0.0 1.6 0.00 0.00 0.00 85 1017.5
20260507063045 16 319 0.0 1.6 0.00 0.00 0.00 84 1017.5
20260507062108 16 289 0.0 1.6 0.00 0.00 0.00 84 1017.5
20260507061020 16 0.0 1.6 0.00 0.00 0.00 84 1017.5
20260507060033 16 309 0.0 1.6 0.00 0.00 0.00 85 1017.5
20260507055020 16 29 0.0 1.6 0.00 0.00 0.00 87 1017.5
20260507054044 16 0.0 1.6 0.00 0.00 0.00 90 1017.6
20260507053041 16 0.0 1.6 0.00 0.00 0.00 90 1017.5
20260507052036 16 97 1.6 1.6 0.00 0.00 0.00 90 1017.5
20260507051109 16 103 1.6 3.2 0.00 0.00 0.00 90 1017.5
20260507050055 16 115 1.6 3.2 0.00 0.00 0.00 89 1017.5
20260507045034 17 105 1.6 3.2 0.00 0.00 0.00 87 1017.5
20260507044152 17 102 0.0 1.6 0.00 0.00 0.00 84 1017.4
20260507043100 17 276 0.0 1.6 0.00 0.00 0.00 82 1017.4
20260507042032 17 3 0.0 1.6 0.00 0.00 0.00 81 1017.3
20260507041103 17 304 0.0 3.2 0.00 0.00 0.00 80 1017.2
20260507040032 17 167 0.0 1.6 0.00 0.00 0.00 79 1017.2
20260507035038 17 314 1.6 3.2 0.00 0.00 0.00 77 1017.0
20260507034101 17 266 0.0 1.6 0.00 0.00 0.00 75 1016.9
20260507033042 18 239 1.6 3.2 0.00 0.00 0.00 74 1016.9
20260507032026 18 142 1.6 1.6 0.00 0.00 0.00 72 1016.7
20260507031109 18 278 1.6 1.6 0.00 0.00 0.00 72 1016.6
20260507030054 18 295 1.6 1.6 0.00 0.00 0.00 74 1016.6
20260507025024 18 269 1.6 3.2 0.00 0.00 0.00 73 1016.5
20260507024019 18 299 1.6 3.2 0.00 0.00 0.00 72 1016.4
20260507023035 18 307 0.0 3.2 0.00 0.00 0.00 73 1016.3
20260507022042 18 247 0.0 1.6 0.00 0.00 0.00 80 1016.3
20260507021053 18 118 1.6 4.8 0.00 0.00 0.00 82 1016.2
20260507020041 18 114 3.2 4.8 0.00 0.00 0.00 81 1016.1
20260507015054 17 111 3.2 4.8 0.00 0.00 0.00 84 1016.1
20260507014059 18 114 3.2 4.8 0.00 0.00 0.00 82 1016.0